Regional Weather Roundup
Issued by NWS

Home | Current Version | Previous Version | Text Only | Print | Product List | Glossary Off
Versions: 1 2 3 4 5 6 7 8 9 10 11 12 13 14 15 16 17 18 19 20 21 22 23 24 25 26 27 28 29 30 31 32 33 34 35 36 37 38 39 40 41 42 43 44 45 46 47 48 49 50

000
ASUS43 KLOT 011610
RWRIL

ILLINOIS REGIONAL WEATHER ROUNDUP
NATIONAL WEATHER SERVICE CHICAGO/ROMEOVILLE IL
1000 AM CST SUN MAR 01 2015

NOTE: "FAIR" INDICATES FEW OR NO CLOUDS BELOW 12,000 FEET WITH NO
SIGNIFICANT WEATHER AND/OR OBSTRUCTIONS TO VISIBILITY.

* THESE STATIONS ARE NOT UNDER NWS QUALITY CONTROL. THEY ALSO MAY NOT
  REPORT WEATHER SUCH AS PRECIPITATION OR FOG.

ILZ001-002-007-009-015-016-024-011700-
NORTHWEST ILLINOIS

CITY           SKY/WX    TMP DP  RH WIND       PRES   REMARKS
MOLINE         CLOUDY    19  16  88 CALM      30.38S FOG
STERLING*      MOSUNNY   19  18  93 SW3       30.38S
SAVANNA*       MOSUNNY   19  16  88 S3        30.39R FOG
$$

ILZ003-004-008-010-011-017-018-011700-
NORTH CENTRAL ILLINOIS

CITY           SKY/WX    TMP DP  RH WIND       PRES   REMARKS
ROCKFORD       CLOUDY    19  14  81 CALM      30.37R HAZE
FREEPORT*      MOSUNNY   17  14  90 W5        30.37R FOG     WCI   9
ROCHELLE*      PTSUNNY   15  13  92 S3        30.37F FOG
DE KALB*       PTSUNNY   15  13  90 SW3       30.36S FOG
PERU*          LGT SNOW  19  17  89 CALM      30.39S VSB 3/4
$$

ILZ005-006-012>014-019>023-011700-
NORTHEAST ILLINOIS

CITY           SKY/WX    TMP DP  RH WIND       PRES   REMARKS
CHICAGO-OHARE  CLOUDY    19  16  88 S3        30.35F FOG
CHICAGO-MIDWAY LGT SNOW  22  18  85 SW3       30.37S FOG
AURORA         CLOUDY    18  15  88 CALM      30.37S FOG
LANSING*       LGT SNOW  20  18  91 CALM      30.37S VSB 1
JOLIET*        RAIN      21  18  86 CALM      30.38S
WAUKEGAN       CLOUDY    18  16  92 S6        30.34F WCI  10
DUPAGE AIRPORT CLOUDY    19  17  92 S3        30.35S FOG
KANKAKEE*      SNOW      21  19  91 CALM      30.38F VSB 1/2
WHEELING       CLOUDY    19  15  84 SW3       30.38S FOG
MORRIS*        LGT SNOW  19  18  96 CALM      30.37S
ROMEOVILLE*    RAIN      20  19  93 CALM      30.37S
NORTHERLY ISL    N/A     22  17  81 W5          N/A  WCI  16
$$

LMZ740>746-011700-
SOUTHERN LAKE MICHIGAN

STATION/POSITION SKY/WX   TEMP    WIND        PRES    VSBY  WAVE
                          AIR SEA DIR/SP/G                  HT/PER
                          (F)     (DEG/KT/KT) (MB)    (MI)  (FT/S)
WAUKEGAN HARBOR            18     270/  6/ 14   N/A
HARRISON CRIB              22     170/  2/  3   N/A
BURNHAM HARBOR             23      CALM  /  4   N/A
CALUMET HARBOR             22     210/  3/  4 1027.1F
MICHIGAN CITY              20     150/  3/  4   N/A
$$

ILZ025>027-034>036-040-047-049-050-058-095>099-011700-
WEST-CENTRAL ILLINOIS

CITY           SKY/WX    TMP DP  RH WIND       PRES   REMARKS
QUINCY         CLOUDY    23  19  85 NW3       30.37F FOG
GALESBURG*     LGT SNOW  20  18  91 CALM      30.38S VSB 1
MACOMB*        LGT RAIN  22  20  91 CALM      30.41S
JACKSONVILLE*  LGT RAIN  25  22  87 CALM      30.38F
PITTSFIELD*    LGT SNOW  24  21  88 CALM      30.38F
$$

ILZ028>032-037-038-041>044-048-051>054-059>061-011700-
CENTRAL ILLINOIS

CITY           SKY/WX    TMP DP  RH WIND       PRES   REMARKS
PONTIAC        SNOW      23  20  91 CALM      30.39S VSB 1/2
BLOOMINGTON    LGT SNOW  23  21  92 CALM      30.37R VSB 1
DECATUR        LGT SNOW  25  22  88 CALM      30.37F FOG
PEORIA         LGT SNOW  24  20  84 W3        30.38F FOG
LACON*         SNOW      21  18  87 CALM      30.39S VSB 1/2
LINCOLN*       LGT SNOW  26  22  86 CALM      30.39F
SPRINGFIELD    LGT SNOW  25  22  88 CALM      30.38S FOG
TAYLORVILLE    LGT SNOW  25  23  93 CALM      30.37F
$$

ILZ033-039-045-046-055>057-062-063-011700-
EAST-CENTRAL ILLINOIS

CITY           SKY/WX    TMP DP  RH WIND       PRES   REMARKS
CHAMPAIGN      LGT SNOW  24  22  91 CALM      30.37F FOG
DANVILLE*      LGT SNOW  23  21  91 CALM      30.35F VSB 3/4
RANTOUL*       LGT SNOW  25  22  89 CALM      30.36F
MATTOON        CLOUDY    28  25  88 NW5       30.36R FOG     WCI  23
PARIS*         LGT SNOW  27  25  93 CALM      30.38S
$$

ILZ079-100>102-011700-
SOUTHWEST ILLINOIS

CITY           SKY/WX    TMP DP  RH WIND       PRES   REMARKS
ALTON          CLOUDY    28  28 100 W6        30.39S FOG     WCI  22
BELLEVILLE     PTSUNNY   28  28 100 W5        30.38R WCI  23
CAHOKIA*       CLOUDY    29  26  89 W3        30.39S FOG
SPARTA*        CLOUDY    29  28  96 CALM      30.39S FOG
$$

ILZ064>066-069>071-074>076-080>082-084>086-088>090-092>094-011700-
SOUTH-CENTRAL ILLINOIS

CITY           SKY/WX    TMP DP  RH WIND       PRES   REMARKS
CARBONDALE     CLOUDY    31  29  92 NW5       30.38S FOG     WCI  26
CAIRO*         CLOUDY    37  32  85 N5        30.36F WCI  33
EFFINGHAM*     FOG       29  26  89 CALM      30.39R VSB 1
MARION         CLOUDY    32  30  93 NW5       30.39R FOG     WCI  27
MT. VERNON     CLOUDY    30  27  86 CALM      30.38S
CENTRALIA*     CLOUDY    30  28  91 CALM      30.38R FOG
SALEM*         CLOUDY    31  29  92 CALM      30.38R FOG
METROPOLIS*    CLOUDY    36  32  85 CALM      30.36S
$$

ILZ067-068-072-073-078-083-087-091-011700-
SOUTHEAST ILLINOIS

CITY           SKY/WX    TMP DP  RH WIND       PRES   REMARKS
LAWRENCEVILLE  FOG       32  30  92 NE6       30.38S VSB 3/4 WCI  26
FLORA*         CLOUDY    30  29  98 CALM      30.38S FOG
FAIRFIELD*     CLOUDY    31  30  96 CALM      30.36S FOG
HARRISBURG*    CLOUDY    32  31  96 CALM      30.39R FOG
ROBINSON*      DRIZZLE   30  29  97 CALM      30.38F
CARMI*         CLOUDY    34  33  97 CALM      30.37S FOG
$$

ABBREVIATIONS USED IN REMARKS
   TC - TEMPERATURE IN CELSIUS
  WCI - WIND CHILL INDEX
   HX - HEAT INDEX
  VSB - VISIBILITY
$$




USA.gov is the U.S. government's official web portal to all federal, state and local government web resources and services.